| time (UTC) | temp C | wind direction | speed KPH | gust KPH | rain 1hr cm | rain 24hr cm | rain mn cm | humidity % | barometer mb |
| 20260502205412 | 18 | 0 | 8.0 | 14.5 | 0.00 | 0.00 | 0.00 | 33 | 1022.4 |
| 20260502204913 | 18 | 48 | 1.6 | 8.0 | 0.00 | 0.00 | 0.00 | 35 | 1022.1 |
| 20260502203913 | 18 | 0 | 4.8 | 11.3 | 0.00 | 0.00 | 0.00 | 33 | 1020.3 |
| 20260502203413 | 18 | 0 | 4.8 | 9.7 | 0.00 | 0.00 | 0.00 | 34 | 1021.6 |
| 20260502202912 | 18 | 3 | 4.8 | 8.0 | 0.00 | 0.00 | 0.00 | 36 | 1022.2 |
| 20260502202412 | 18 | 298 | 4.8 | 8.0 | 0.00 | 0.00 | 0.00 | 34 | 1022.3 |
| 20260502201914 | 18 | 1 | 3.2 | 8.0 | 0.00 | 0.00 | 0.00 | 33 | 1022.1 |
| 20260502200911 | 18 | 0 | 4.8 | 11.3 | 0.00 | 0.00 | 0.00 | 34 | 1022.8 |
| 20260502200412 | 18 | 10 | 4.8 | 9.7 | 0.00 | 0.00 | 0.00 | 34 | 1022.8 |
| 20260502195913 | 18 | 168 | 6.4 | 8.0 | 0.00 | 0.00 | 0.00 | 33 | 1022.9 |
| 20260502195411 | 18 | 0 | 1.6 | 9.7 | 0.00 | 0.00 | 0.00 | 31 | 1023.0 |
| 20260502194912 | 18 | 285 | 8.0 | 9.7 | 0.00 | 0.00 | 0.00 | 40 | 1023.0 |
| 20260502194412 | 18 | 324 | 1.6 | 8.0 | 0.00 | 0.00 | 0.00 | 32 | 1023.1 |
| 20260502193913 | 17 | 305 | 4.8 | 8.0 | 0.00 | 0.00 | 0.00 | 33 | 1023.1 |
| 20260502193412 | 17 | 0 | 6.4 | 8.0 | 0.00 | 0.00 | 0.00 | 35 | 1023.2 |
| 20260502192912 | 17 | 279 | 4.8 | 9.7 | 0.00 | 0.00 | 0.00 | 32 | 1023.2 |
| 20260502192410 | 17 | 310 | 3.2 | 9.7 | 0.00 | 0.00 | 0.00 | 37 | 1023.4 |
| 20260502191912 | 17 | 0 | 4.8 | 8.0 | 0.00 | 0.00 | 0.00 | 42 | 1023.4 |
| 20260502190912 | 17 | 0 | 3.2 | 8.0 | 0.00 | 0.00 | 0.00 | 34 | 1023.6 |
| 20260502185411 | 16 | 0 | 8.0 | 11.3 | 0.00 | 0.00 | 0.00 | 36 | 1023.7 |
| 20260502184909 | 16 | 0 | 3.2 | 9.7 | 0.00 | 0.00 | 0.00 | 35 | 1023.8 |
| 20260502183911 | 17 | 357 | 3.2 | 9.7 | 0.00 | 0.00 | 0.00 | 35 | 1023.9 |
| 20260502183410 | 17 | 286 | 6.4 | 9.7 | 0.00 | 0.00 | 0.00 | 35 | 1023.9 |
| 20260502182910 | 17 | 93 | 4.8 | 9.7 | 0.00 | 0.00 | 0.00 | 36 | 1024.1 |
| 20260502182409 | 16 | 18 | 4.8 | 9.7 | 0.00 | 0.00 | 0.00 | 39 | 1024.2 |
| 20260502181909 | 16 | 4 | 3.2 | 9.7 | 0.00 | 0.00 | 0.00 | 35 | 1024.2 |
| 20260502180409 | 16 | 16 | 4.8 | 9.7 | 0.00 | 0.00 | 0.00 | 34 | 1024.9 |
| 20260502170409 | 15 | 14 | 6.4 | 11.3 | 0.00 | 0.00 | 0.00 | 36 | 1024.5 |
| 20260502163908 | 15 | 0 | 1.6 | 9.7 | 0.00 | 0.00 | 0.00 | 40 | 1024.5 |
| 20260502162907 | 14 | 309 | 4.8 | 8.0 | 0.00 | 0.00 | 0.00 | 43 | 1024.6 |
| 20260502161908 | 14 | 0 | 3.2 | 11.3 | 0.00 | 0.00 | 0.00 | 43 | 1024.5 |
| 20260502161408 | 14 | 0 | 4.8 | 11.3 | 0.00 | 0.00 | 0.00 | 40 | 1024.5 |
| 20260502160906 | 14 | 0 | 4.8 | 8.0 | 0.00 | 0.00 | 0.00 | 45 | 1024.6 |
| 20260502160406 | 13 | 0 | 1.6 | 9.7 | 0.00 | 0.00 | 0.00 | 43 | 1024.6 |
| 20260502151407 | 12 | 11 | 0.0 | 4.8 | 0.00 | 0.00 | 0.00 | 44 | 1024.9 |
| 20260502150906 | 12 | 11 | 0.0 | 4.8 | 0.00 | 0.00 | 0.00 | 42 | 1024.9 |
| 20260502150406 | 12 | 32 | 0.0 | 3.2 | 0.00 | 0.00 | 0.00 | 45 | 1024.9 |
| 20260502130402 | 3 | 24 | 0.0 | 0.0 | 0.00 | 0.00 | 0.00 | 65 | 1024.5 |
| 20260502123403 | 3 | 23 | 0.0 | 6.4 | 0.00 | 0.00 | 0.00 | 63 | 1024.5 |
| 20260502122401 | 2 | 124 | 0.0 | 1.6 | 0.00 | 0.00 | 0.00 | 64 | 1024.3 |
| 20260502121902 | 2 | 124 | 0.0 | 1.6 | 0.00 | 0.00 | 0.00 | 66 | 1024.3 |
| 20260502121401 | 2 | 124 | 0.0 | 1.6 | 0.00 | 0.00 | 0.00 | 65 | 1024.3 |
| 20260502120900 | 2 | 124 | 0.0 | 0.0 | 0.00 | 0.00 | 0.00 | 64 | 1024.3 |
| 20260502115902 | 2 | 124 | 0.0 | 1.6 | 0.00 | 0.00 | 0.00 | 64 | 1024.3 |
| 20260502115400 | 2 | 124 | 0.0 | 0.0 | 0.00 | 0.00 | 0.00 | 64 | 1024.3 |
| 20260502114400 | 2 | 124 | 0.0 | 3.2 | 0.00 | 0.00 | 0.00 | 63 | 1024.3 |
| 20260502113902 | 3 | 124 | 1.6 | 4.8 | 0.00 | 0.00 | 0.00 | 62 | 1024.3 |
| 20260502112903 | 3 | 124 | 0.0 | 3.2 | 0.00 | 0.00 | 0.00 | 60 | 1024.4 |
| 20260502111901 | 3 | 124 | 1.6 | 3.2 | 0.00 | 0.00 | 0.00 | 61 | 1024.3 |
| 20260502111401 | 3 | 124 | 0.0 | 1.6 | 0.00 | 0.00 | 0.00 | 62 | 1024.5 |
| 20260502105901 | 3 | 124 | 3.2 | 4.8 | 0.00 | 0.00 | 0.00 | 63 | 1024.3 |
| 20260502105401 | 2 | 124 | 3.2 | 4.8 | 0.00 | 0.00 | 0.00 | 63 | 1024.4 |
| 20260502104902 | 2 | 124 | 0.0 | 0.0 | 0.00 | 0.00 | 0.00 | 64 | 1024.3 |
| 20260502104359 | 2 | 124 | 0.0 | 0.0 | 0.00 | 0.00 | 0.00 | 64 | 1024.3 |
| 20260502103901 | 3 | 124 | 0.0 | 1.6 | 0.00 | 0.00 | 0.00 | 63 | 1024.2 |
| 20260502103400 | 3 | 124 | 0.0 | 1.6 | 0.00 | 0.00 | 0.00 | 64 | 1024.2 |
| 20260502102900 | 2 | 124 | 0.0 | 1.6 | 0.00 | 0.00 | 0.00 | 63 | 1024.2 |
| 20260502102358 | 3 | 124 | 0.0 | 4.8 | 0.00 | 0.00 | 0.00 | 63 | 1024.2 |
| 20260502100859 | 2 | 124 | 0.0 | 1.6 | 0.00 | 0.00 | 0.00 | 64 | 1024.1 |
| 20260502100359 | 3 | 124 | 0.0 | 1.6 | 0.00 | 0.00 | 0.00 | 62 | 1024.1 |
| 20260502091357 | 3 | 125 | 0.0 | 0.0 | 0.00 | 0.00 | 0.00 | 63 | 1024.2 |
| 20260502090857 | 3 | 125 | 0.0 | 3.2 | 0.00 | 0.00 | 0.00 | 59 | 1023.9 |
| 20260502090358 | 3 | 125 | 0.0 | 3.2 | 0.00 | 0.00 | 0.00 | 59 | 1024.1 |
| 20260502071356 | 5 | 0 | 0.0 | 3.2 | 0.00 | 0.00 | 0.00 | 53 | 1023.8 |
| 20260502070855 | 5 | 130 | 0.0 | 0.0 | 0.00 | 0.00 | 0.00 | 51 | 1023.8 |
| 20260502065854 | 5 | 130 | 0.0 | 0.0 | 0.00 | 0.00 | 0.00 | 51 | 1023.7 |
| 20260502064355 | 5 | 130 | 0.0 | 6.4 | 0.00 | 0.00 | 0.00 | 53 | 1023.7 |
| 20260502063854 | 5 | 130 | 0.0 | 3.2 | 0.00 | 0.00 | 0.00 | 53 | 1023.6 |
| 20260502062355 | 5 | 131 | 0.0 | 0.0 | 0.00 | 0.00 | 0.00 | 52 | 1023.6 |
| 20260502061852 | 5 | 130 | 0.0 | 0.0 | 0.00 | 0.00 | 0.00 | 54 | 1023.6 |
| 20260502060853 | 5 | 133 | 0.0 | 4.8 | 0.00 | 0.00 | 0.00 | 54 | 1023.6 |
| 20260502060353 | 5 | 133 | 0.0 | 4.8 | 0.00 | 0.00 | 0.00 | 55 | 1023.6 |
| 20260502055854 | 5 | 131 | 1.6 | 3.2 | 0.00 | 0.00 | 0.00 | 51 | 1023.7 |
| 20260502055353 | 5 | 0 | 0.0 | 3.2 | 0.00 | 0.00 | 0.00 | 55 | 1023.6 |
| 20260502054854 | 5 | 0 | 0.0 | 4.8 | 0.00 | 0.00 | 0.00 | 53 | 1023.6 |
| 20260502054354 | 6 | 0 | 0.0 | 4.8 | 0.00 | 0.00 | 0.00 | 54 | 1023.7 |
| 20260502053853 | 6 | 134 | 0.0 | 4.8 | 0.00 | 0.00 | 0.00 | 52 | 1023.8 |
| 20260502052853 | 6 | 133 | 3.2 | 6.4 | 0.00 | 0.00 | 0.00 | 47 | 1023.8 |
| 20260502052354 | 6 | 133 | 3.2 | 4.8 | 0.00 | 0.00 | 0.00 | 48 | 1023.8 |
| 20260502050853 | 6 | 131 | 0.0 | 3.2 | 0.00 | 0.00 | 0.00 | 52 | 1023.8 |
| 20260502045853 | 6 | 131 | 0.0 | 3.2 | 0.00 | 0.00 | 0.00 | 53 | 1023.8 |
| 20260502044854 | 6 | 131 | 0.0 | 3.2 | 0.00 | 0.00 | 0.00 | 51 | 1023.9 |
| 20260502044353 | 6 | 131 | 0.0 | 4.8 | 0.00 | 0.00 | 0.00 | 53 | 1023.9 |
| 20260502042351 | 7 | 131 | 0.0 | 4.8 | 0.00 | 0.00 | 0.00 | 50 | 1023.9 |
| 20260502040850 | 9 | 125 | 0.0 | 0.0 | 0.00 | 0.00 | 0.00 | 45 | 1023.9 |
| 20260502040352 | 9 | 125 | 0.0 | 3.2 | 0.00 | 0.00 | 0.00 | 42 | 1023.8 |
| 20260502035350 | 9 | 125 | 0.0 | 0.0 | 0.00 | 0.00 | 0.00 | 44 | 1023.8 |
| 20260502034851 | 10 | 125 | 0.0 | 3.2 | 0.00 | 0.00 | 0.00 | 44 | 1023.8 |
| 20260502034351 | 10 | 127 | 0.0 | 6.4 | 0.00 | 0.00 | 0.00 | 44 | 1023.9 |
| 20260502033851 | 11 | 0 | 0.0 | 11.3 | 0.00 | 0.00 | 0.00 | 41 | 1023.8 |
| 20260502033350 | 11 | 118 | 6.4 | 14.5 | 0.00 | 0.00 | 0.00 | 38 | 1023.8 |
| 20260502032849 | 10 | 111 | 8.0 | 14.5 | 0.00 | 0.00 | 0.00 | 41 | 1023.8 |
| 20260502031349 | 7 | 28 | 0.0 | 0.0 | 0.00 | 0.00 | 0.00 | 51 | 1023.7 |
| 20260502030849 | 7 | 28 | 0.0 | 0.0 | 0.00 | 0.00 | 0.00 | 54 | 1023.6 |
| 20260502030348 | 7 | 28 | 0.0 | 0.0 | 0.00 | 0.00 | 0.00 | 58 | 1023.6 |
| 20260502025849 | 7 | 28 | 0.0 | 0.0 | 0.00 | 0.00 | 0.00 | 60 | 1023.6 |
| 20260502025350 | 7 | 28 | 0.0 | 0.0 | 0.00 | 0.00 | 0.00 | 59 | 1023.5 |
| 20260502024849 | 8 | 28 | 0.0 | 0.0 | 0.00 | 0.00 | 0.00 | 57 | 1023.5 |
| 20260502024350 | 8 | 0 | 0.0 | 0.0 | 0.00 | 0.00 | 0.00 | 56 | 1023.5 |
| 20260502023848 | 10 | 0 | 0.0 | 0.0 | 0.00 | 0.00 | 0.00 | 53 | 1023.5 |
| 20260502023348 | 10 | 0 | 0.0 | 0.0 | 0.00 | 0.00 | 0.00 | 46 | 1023.6 |
| 20260502022848 | 10 | 0 | 0.0 | 0.0 | 0.00 | 0.00 | 0.00 | 47 | 1023.5 |
| 20260502022348 | 11 | 0 | 0.0 | 0.0 | 0.00 | 0.00 | 0.00 | 48 | 1023.5 |
| 20260502021847 | 12 | 35 | 0.0 | 0.0 | 0.00 | 0.00 | 0.00 | 46 | 1023.5 |
| 20260502020848 | 14 | 0 | 0.0 | 0.0 | 0.00 | 0.00 | 0.00 | 38 | 1023.5 |
| 20260502020349 | 15 | 0 | 0.0 | 0.0 | 0.00 | 0.00 | 0.00 | 36 | 1023.6 |
| 20260502015849 | 16 | 0 | 0.0 | 0.0 | 0.00 | 0.00 | 0.00 | 33 | 1023.6 |
| 20260502015347 | 16 | 0 | 0.0 | 0.0 | 0.00 | 0.00 | 0.00 | 28 | 1023.6 |
| 20260502014848 | 16 | 0 | 0.0 | 0.0 | 0.00 | 0.00 | 0.00 | 27 | 1023.6 |
| 20260502014349 | 16 | 0 | 0.0 | 0.0 | 0.00 | 0.00 | 0.00 | 27 | 1023.6 |
| 20260502013848 | 17 | 0 | 0.0 | 0.0 | 0.00 | 0.00 | 0.00 | 26 | 1023.6 |
| 20260502012847 | 17 | 0 | 0.0 | 3.2 | 0.00 | 0.00 | 0.00 | 27 | 1023.6 |
| 20260502012346 | 17 | 0 | 0.0 | 3.2 | 0.00 | 0.00 | 0.00 | 27 | 1023.7 |
| 20260502011848 | 17 | 0 | 0.0 | 3.2 | 0.00 | 0.00 | 0.00 | 31 | 1023.7 |
| 20260502010847 | 17 | 0 | 1.6 | 4.8 | 0.00 | 0.00 | 0.00 | 27 | 1023.8 |
| 20260502010347 | 17 | 0 | 0.0 | 3.2 | 0.00 | 0.00 | 0.00 | 28 | 1023.8 |
| 20260502005847 | 17 | 0 | 1.6 | 3.2 | 0.00 | 0.00 | 0.00 | 25 | 1023.8 |
| 20260502005346 | 17 | 326 | 0.0 | 8.0 | 0.00 | 0.00 | 0.00 | 23 | 1023.8 |
| 20260502004847 | 17 | 326 | 4.8 | 8.0 | 0.00 | 0.00 | 0.00 | 24 | 1023.8 |
| 20260502004347 | 17 | 302 | 3.2 | 11.3 | 0.00 | 0.00 | 0.00 | 26 | 1023.8 |
| 20260502003846 | 18 | 285 | 6.4 | 11.3 | 0.00 | 0.00 | 0.00 | 28 | 1023.8 |
| 20260502003347 | 18 | 0 | 1.6 | 8.0 | 0.00 | 0.00 | 0.00 | 28 | 1023.8 |
| 20260502002846 | 17 | 353 | 1.6 | 8.0 | 0.00 | 0.00 | 0.00 | 27 | 1023.9 |
| 20260502002346 | 18 | 27 | 4.8 | 8.0 | 0.00 | 0.00 | 0.00 | 26 | 1023.9 |
| 20260502001845 | 18 | 17 | 3.2 | 6.4 | 0.00 | 0.00 | 0.00 | 27 | 1023.9 |
| 20260502001346 | 18 | 16 | 1.6 | 8.0 | 0.00 | 0.00 | 0.00 | 25 | 1023.8 |
| 20260502000845 | 18 | 17 | 3.2 | 8.0 | 0.00 | 0.00 | 0.00 | 26 | 1023.8 |
| 20260501235345 | 18 | 0 | 4.8 | 8.0 | 0.00 | 0.00 | 0.00 | 26 | 1023.9 |
| 20260501234845 | 18 | 275 | 3.2 | 8.0 | 0.00 | 0.00 | 0.00 | 32 | 1023.9 |
| 20260501234346 | 17 | 275 | 3.2 | 11.3 | 0.00 | 0.00 | 0.00 | 26 | 1024.1 |
| 20260501233845 | 17 | 264 | 4.8 | 11.3 | 0.00 | 0.00 | 0.00 | 26 | 1024.1 |
| 20260501233346 | 17 | 272 | 8.0 | 9.7 | 0.00 | 0.00 | 0.00 | 27 | 1024.1 |
| 20260501232844 | 18 | 296 | 6.4 | 24.1 | 0.00 | 0.00 | 0.00 | 26 | 1023.9 |
| 20260501232345 | 18 | 0 | 3.2 | 24.1 | 0.00 | 0.00 | 0.00 | 26 | 1024.1 |
| 20260501231844 | 18 | 0 | 1.6 | 4.8 | 0.00 | 0.00 | 0.00 | 28 | 1024.1 |
| 20260501231344 | 17 | 0 | 1.6 | 9.7 | 0.00 | 0.00 | 0.00 | 29 | 1024.1 |
| 20260501230843 | 17 | 0 | 3.2 | 9.7 | 0.00 | 0.00 | 0.00 | 25 | 1024.2 |
| 20260501225844 | 17 | 0 | 3.2 | 6.4 | 0.00 | 0.00 | 0.00 | 27 | 1024.2 |
| 20260501224844 | 17 | 317 | 3.2 | 6.4 | 0.00 | 0.00 | 0.00 | 23 | 1024.3 |
| 20260501224343 | 17 | 0 | 3.2 | 6.4 | 0.00 | 0.00 | 0.00 | 25 | 1024.3 |
| 20260501223842 | 17 | 316 | 3.2 | 8.0 | 0.00 | 0.00 | 0.00 | 28 | 1024.4 |
| 20260501223341 | 17 | 281 | 3.2 | 8.0 | 0.00 | 0.00 | 0.00 | 31 | 1024.4 |
| 20260501222841 | 17 | 0 | 1.6 | 6.4 | 0.00 | 0.00 | 0.00 | 26 | 1024.5 |
| 20260501222342 | 17 | 0 | 1.6 | 11.3 | 0.00 | 0.00 | 0.00 | 26 | 1024.6 |
| 20260501221841 | 17 | 0 | 4.8 | 11.3 | 0.00 | 0.00 | 0.00 | 26 | 1024.6 |
| 20260501221343 | 17 | 0 | 6.4 | 14.5 | 0.00 | 0.00 | 0.00 | 32 | 1024.8 |
| 20260501220841 | 17 | 0 | 4.8 | 14.5 | 0.00 | 0.00 | 0.00 | 25 | 1024.8 |
| 20260501220343 | 17 | 0 | 9.7 | 14.5 | 0.00 | 0.00 | 0.00 | 28 | 1024.9 |
| 20260501215341 | 17 | 0 | 3.2 | 8.0 | 0.00 | 0.00 | 0.00 | 25 | 1025.0 |
| 20260501214841 | 17 | 0 | 3.2 | 8.0 | 0.00 | 0.00 | 0.00 | 27 | 1025.1 |
| 20260501214342 | 17 | 0 | 4.8 | 8.0 | 0.00 | 0.00 | 0.00 | 23 | 1025.1 |
| 20260501213843 | 16 | 0 | 3.2 | 6.4 | 0.00 | 0.00 | 0.00 | 35 | 1025.2 |
| 20260501213341 | 16 | 0 | 3.2 | 16.1 | 0.00 | 0.00 | 0.00 | 27 | 1025.2 |
| 20260501212842 | 16 | 0 | 9.7 | 16.1 | 0.00 | 0.00 | 0.00 | 33 | 1025.2 |
| 20260501212341 | 17 | 268 | 9.7 | 16.1 | 0.00 | 0.00 | 0.00 | 31 | 1025.2 |
| 20260501210841 | 16 | 274 | 6.4 | 11.3 | 0.00 | 0.00 | 0.00 | 29 | 1025.5 |
| 20260501210341 | 16 | 255 | 1.6 | 8.0 | 0.00 | 0.00 | 0.00 | 31 | 1025.5 |